EW7837 Weather Reports


time (UTC)temp
C
wind
direction
speed
KPH
gust
KPH
rain 1hr
cm
rain 24hr
cm
rain mn
cm
humidity
%
barometer
mb
20260831140047 22 251 0.0 0.0 0.00 0.00 0.00 84 1009.1
20260831134544 22 251 0.0 0.0 0.00 0.00 0.00 83 1008.9
20260831133038 22 251 0.0 0.0 0.00 0.00 0.00 83 1008.8
20260831131537 22 251 0.0 0.0 0.00 0.00 0.00 83 1008.8
20260831130043 22 251 0.0 0.0 0.00 0.00 0.00 83 1008.7
20260831124539 22 251 0.0 0.0 0.00 0.00 0.00 83 1008.7
20260831123034 22 251 0.0 0.0 0.00 0.00 0.00 84 1008.6
20260831121534 22 251 0.0 0.0 0.00 0.00 0.00 84 1008.6
20260831120034 22 251 0.0 0.0 0.00 0.00 0.00 84 1008.5
20260831114536 22 251 0.0 0.0 0.00 0.00 0.00 84 1008.5
20260831113024 22 251 0.0 0.0 0.00 0.00 0.00 84 1008.6
20260831111607 22 251 0.0 0.0 0.00 0.00 0.00 84 1008.7
20260831110044 22 251 0.0 0.0 0.00 0.00 0.00 84 1008.6
20260831104544 22 251 0.0 0.0 0.00 0.00 0.00 84 1008.8
20260831103043 22 251 0.0 0.0 0.00 0.00 0.00 85 1008.8
20260831101551 22 251 0.0 0.0 0.00 0.00 0.00 85 1008.8
20260831100057 22 251 0.0 0.0 0.00 0.00 0.00 85 1008.8
20260831094547 22 251 0.0 0.0 0.00 0.00 0.00 85 1008.8
20260831093049 23 251 0.0 0.0 0.00 0.00 0.00 85 1008.8
20260831091548 23 251 0.0 0.0 0.00 0.00 0.00 85 1008.8
20260831084542 23 251 0.0 0.0 0.00 0.00 0.00 85 1008.9
20260831083042 23 251 0.0 0.0 0.00 0.00 0.00 86 1009.0
20260831081541 23 251 0.0 0.0 0.00 0.00 0.00 86 1008.9
20260831080039 23 251 0.0 0.0 0.00 0.00 0.00 86 1009.0
20260831074538 23 251 0.0 0.0 0.00 0.00 0.00 86 1009.0
20260831073038 23 251 0.0 0.0 0.00 0.00 0.00 87 1009.0
20260831071537 23 251 0.0 0.0 0.00 0.00 0.00 87 1009.0
20260831070037 23 251 0.0 0.0 0.00 0.00 0.00 87 1009.0
20260831064533 23 251 0.0 0.0 0.00 0.00 0.00 88 1009.1
20260831063033 22 251 0.0 0.0 0.00 0.00 0.00 88 1009.0
20260831061534 22 251 0.0 0.0 0.00 0.00 0.00 88 1009.0
20260831060001 22 251 0.0 0.0 0.00 0.00 0.00 87 1009.0
20260831054501 22 251 0.0 0.0 0.00 0.00 0.00 87 1008.9
20260831053100 22 250 0.0 0.0 0.00 0.00 0.00 86 1008.9
20260831051530 22 251 0.0 0.0 0.00 0.00 0.00 86 1008.9
20260831050027 23 251 0.0 0.0 0.00 0.00 0.00 87 1008.9
20260831044525 23 251 0.0 0.0 0.00 0.00 0.00 87 1008.8
20260831043023 23 251 0.0 0.0 0.00 0.00 0.00 87 1008.6
20260831041528 23 251 0.0 0.0 0.00 0.00 0.00 87 1008.5
20260831040018 23 251 0.0 0.0 0.00 0.00 0.00 86 1008.4
20260831034548 23 251 0.0 0.0 0.00 0.00 0.00 86 1008.1
20260831033046 23 251 0.0 0.0 0.00 0.00 0.00 85 1007.9
20260831031517 23 251 0.0 0.0 0.00 0.00 0.00 84 1007.8
20260831030014 23 251 0.0 0.0 0.00 0.00 0.00 83 1007.7
20260831024507 23 251 0.0 0.0 0.00 0.00 0.00 82 1007.7
20260831023005 24 251 0.0 0.0 0.00 0.00 0.00 81 1007.6
20260831021505 25 251 0.0 0.0 0.00 0.00 0.00 79 1007.5
20260831020005 25 251 0.0 0.0 0.00 0.00 0.00 77 1007.5
20260831014501 25 252 0.0 0.0 0.00 0.00 0.00 77 1007.4
20260831013002 26 251 0.0 0.0 0.00 0.00 0.00 75 1007.5
20260831011500 26 251 0.0 0.0 0.00 0.00 0.00 75 1007.5
20260831010100 26 251 0.0 0.0 0.00 0.00 0.00 73 1007.4
20260831004559 26 248 0.0 0.0 0.00 0.00 0.00 73 1007.5
20260831003100 27 252 0.0 0.0 0.00 0.00 0.00 72 1007.5
20260831001556 27 254 0.0 0.0 0.00 0.00 0.00 71 1007.4
20260831000056 27 261 0.0 0.0 0.00 0.00 0.00 72 1007.6
20260830234604 27 252 0.0 0.0 0.00 0.00 0.00 72 1007.6
20260830233053 27 265 0.0 0.0 0.00 0.00 0.00 71 1007.8
20260830231553 27 250 0.0 0.0 0.00 0.00 0.00 71 1007.7
20260830230052 28 253 0.0 0.0 0.00 0.00 0.00 71 1007.8
20260830224554 28 263 0.0 0.0 0.00 0.00 0.00 70 1007.9
20260830223051 28 259 0.0 0.0 0.00 0.00 0.00 69 1007.9
20260830221550 27 255 0.0 0.0 0.00 0.00 0.00 70 1008.1
20260830220048 27 259 0.0 0.0 0.00 0.00 0.00 71 1008.3
20260830214545 27 233 0.0 0.0 0.00 0.00 0.00 72 1008.4
20260830213046 27 272 0.0 0.0 0.00 0.00 0.00 70 1008.4
20260830211544 27 248 0.0 0.0 0.00 0.00 0.00 68 1008.5
20260830210044 28 267 0.0 0.0 0.00 0.00 0.00 67 1008.8
20260830204542 27 306 0.0 0.0 0.00 0.00 0.00 68 1008.9
20260830203049 27 231 0.0 0.0 0.00 0.00 0.00 67 1009.0
20260830201546 27 260 0.0 0.0 0.00 0.00 0.00 70 1008.9
20260830200036 27 263 1.6 0.0 0.00 0.00 0.00 72 1008.9
20260830194505 27 271 0.0 0.0 0.00 0.00 0.00 72 1009.0
20260830193004 27 250 0.0 0.0 0.00 0.00 0.00 72 1009.1
20260830191603 27 257 0.0 0.0 0.00 0.00 0.00 73 1009.1
20260830190059 27 258 0.0 0.0 0.00 0.00 0.00 73 1009.3
20260830184555 27 250 0.0 0.0 0.00 0.00 0.00 73 1009.1
20260830183106 27 268 0.0 0.0 0.00 0.00 0.00 71 1009.2
20260830181555 27 260 0.0 0.0 0.00 0.00 0.00 72 1009.3
20260830180043 27 261 0.0 0.0 0.00 0.00 0.00 73 1009.3
20260830174538 27 255 0.0 0.0 0.00 0.00 0.00 74 1009.1
20260830173040 27 255 0.0 0.0 0.00 0.00 0.00 74 1008.9
20260830171529 26 255 0.0 0.0 0.00 0.00 0.00 75 1008.9
20260830170024 26 255 0.0 0.0 0.00 0.00 0.00 76 1008.8
20260830164531 26 255 0.0 0.0 0.00 0.00 0.00 78 1008.7
20260830163019 26 255 0.0 0.0 0.00 0.00 0.00 78 1008.7
20260830161614 26 255 0.0 0.0 0.00 0.00 0.00 79 1008.7
20260830160045 25 255 0.0 0.0 0.00 0.00 0.00 82 1008.8
20260830154542 24 255 0.0 0.0 0.00 0.00 0.00 84 1008.8
20260830153041 23 255 0.0 0.0 0.00 0.00 0.00 86 1008.8
20260830151540 23 255 0.0 0.0 0.00 0.00 0.00 87 1008.8
20260830150033 23 255 0.0 0.0 0.00 0.00 0.00 89 1008.8
20260830144527 22 255 0.0 0.0 0.00 0.00 0.00 89 1008.6
20260830143021 22 255 0.0 0.0 0.00 0.00 0.00 90 1008.8
20260830141519 22 255 0.0 0.0 0.00 0.00 0.00 90 1008.6